Track EGYPTSAT 2 now! 10-day predictions EGYPTSAT 2 is classified as:
1 39678U 14021A 25186.44295925 .00000024 00000-0 46360-4 0 9992 2 39678 51.6158 217.0317 0000169 161.7235 198.3720 14.55771127592706